Starlink 35856

operational
NORAD ID: 67013 Int'l Des: 2025-293 Owner: SPXS Country: US Constellation: starlink
LEOCIRCULAR

About Starlink 35856

Description loading...

Live Position

Loading 3D Globe...

Upcoming Passes

Altitude History

Altitude vs Time

uPlot chart will show altitude changes over time

Two-Line Element Set

1 67013U 25293L 26037.77394638 .00005079 00000-0 42436-3 0 9996
2 67013 70.0024 172.5410 0003041 276.5112 83.5701 14.99127634 10252
Epoch: Feb 6, 2026 • Age: 7 hours

Current Status

Altitude 577.5 km
Velocity 7.58 km/s
Sub-Earth Point 46.13°N, 38.75°E
Launch Date Dec 10, 2025
Age 0.1 years
Type internet

Technical Details

Classification Payload
Mass 575.00 kg
Dry Mass 530.00 kg
Total Mass 575.00 kg
Length 0.30 m
Diameter 4.10 m
Span 29.00 m
Shape Box + pan
Manufacturer SPXS
Bus Type Starlink V2MO
Phase Status In Orbit
Owner/State SPXS/US

Large Constellations

Loading constellations...